Zurück zum Katalog

STARLINK-31658

AktivKommunikationVLEO
NORAD 59513·PAYLOAD·🇺🇸 United States

Gestartet Apr 17, 2024 von Cape Canaveral Space Force Station

Loading…

Nächste Überflüge (nächste 24 Stunden)

TLE

AktuellSource: CelesTrak SupGP

Epoche: Sep 14, 2026, 20:51 UTC

1 59513C 24073C   26257.86923611 -.00013535  00000+0 -49015-3 0  2574
2 59513  43.0029 289.3625 0001455 294.1174  33.8859 15.27590520    14

Verfolge STARLINK-31658 in Echtzeit mit AllMySat

Download on the App Store